User: anonymous   Login
Location: Unspecified
(0.0000°N, 0.0000°E)
Time: 14:33:59
(UTC+00:00)
Language:

deb Explorer IX - Orbit

View from above orbital plane
View from above orbital plane
View from above satellite
View from above satellite

Ground track
Ground track

The orbit data is extracted from the following two-line orbital elements,

1    85U 61004C   19049.88059435 -.00000008 +00000-0 +19267-4 0  9997
2    85 038.7788 330.4635 0402236 155.0412 207.0375 14.19728492862192
Epoch (UTC): 18 February 2019 21:08:03
Eccentricity: 0.0402236
inclination: 38.7788°
perigee height: 536 km
apogee height: 1116 km
right ascension of ascending node: 330.4635°
argument of perigee: 155.0412°
revolutions per day: 14.19728492
mean anomaly at epoch: 207.0375°
orbit number at epoch: 86219

The dashed part of the orbit path shows where the satellite is in the earth's shadow,  

DLR